Simultaneous Nadir Overpasses (SNOs) Predictions

Prediction of SNOs between GOES-15 and METOP-B Satellite Orbit:

Table of predicted SNOs for the next 14.0 days since TLE Epoch: 6/16/2017
Index Date Time (GOES-15) GOES-15 Lat,Lon METOP-B Lat,Lon Distance(km) Time Diff (sec)
1 06/17/2017 18:39:37 -0.14,-135.41 0.19,-136.81 160.09 80
2 06/18/2017 18:16:17 -0.15,-135.42 -0.95,-131.82 410.07 80
3 06/20/2017 06:37:57 0.14,-135.39 -0.07,-136.42 116.60 80
4 06/21/2017 06:14:36 0.15,-135.40 1.01,-131.42 453.23 80
5 06/22/2017 18:36:08 -0.14,-135.46 -0.01,-135.98 60.22 80
6 06/25/2017 06:34:27 0.14,-135.41 0.12,-135.59 19.59 80
7 06/27/2017 18:29:58 -0.14,-135.46 -0.20,-135.15 35.26 80
8 06/29/2017 06:51:38 0.12,-135.41 -0.82,-139.75 493.50 80
9 06/30/2017 06:28:17 0.14,-135.41 0.26,-134.75 75.23 80




NCC Satellite Simultaneous Nadir Overpasses (SNOs) Prediction Service
